• In India
  • List of Countries
  • For 7 days
  • Water Temperature
  • Satellite Maps
  • Weather Map
  • Weather Widgets
  • user-avatar
    Login

    Hourly Weather Stepanakert

    Today, 20 October, Saturday

    Time Temperature Precipitation Wind Pressure Humidity
    00:00 +14°C° 0 mm 1 mps 695 mmHg 73%
    01:00 +14°C° 0 mm 1 mps 695 mmHg 73%
    02:00 +13°C° 0 mm 1 mps 695 mmHg 73%
    03:00 +13°C° 0 mm 1 mps 695 mmHg 72%
    04:00 +13°C° 0 mm 1 mps 695 mmHg 72%
    05:00 +13°C° 0 mm 1 mps 695 mmHg 72%
    06:00 +13°C° 0 mm 1 mps 695 mmHg 72%
    07:00 +14°C° 0 mm 1 mps 695 mmHg 68%
    08:00 +16°C° 0 mm 1 mps 695 mmHg 63%
    09:00 +18°C° 0 mm 2 mps 695 mmHg 59%
    10:00 +19°C° 0 mm 2 mps 695 mmHg 56%
    11:00 +20°C° 0 mm 2 mps 695 mmHg 53%
    12:00 +21°C° 0 mm 2 mps 695 mmHg 50%
    13:00 +21°C° 0 mm 2 mps 695 mmHg 50%
    14:00 +21°C° 0 mm 2 mps 694 mmHg 50%
    15:00 +21°C° 0 mm 2 mps 694 mmHg 50%
    16:00 +20°C° 0 mm 2 mps 694 mmHg 57%
    17:00 +19°C° 0 mm 1 mps 694 mmHg 63%
    18:00 +18°C° 0 mm 1 mps 693 mmHg 70%
    19:00 +18°C° 0 mm 1 mps 693 mmHg 69%
    20:00 +16°C° 0 mm 1 mps 693 mmHg 69%
    21:00 +16°C° 0 mm 1 mps 693 mmHg 68%
    22:00 +16°C° 0 mm 1 mps 693 mmHg 67%
    23:00 +16°C° 0 mm 1 mps 693 mmHg 67%

    Tomorrow, 21 October, Sunday

    Time Temperature Precipitation Wind Pressure Humidity
    00:00 +15°C° 0 mm 1 mps 693 mmHg 66%
    01:00 +15°C° 0 mm 1 mps 693 mmHg 66%
    02:00 +15°C° 0 mm 1 mps 693 mmHg 65%
    03:00 +15°C° 0 mm 1 mps 693 mmHg 65%
    04:00 +14°C° 0 mm 1 mps 693 mmHg 65%
    05:00 +14°C° 0 mm 1 mps 693 mmHg 64%
    06:00 +14°C° 0 mm 1 mps 693 mmHg 64%
    07:00 +16°C° 0 mm 1 mps 693 mmHg 59%
    08:00 +19°C° 0 mm 1 mps 694 mmHg 54%
    09:00 +20°C° 0 mm 1 mps 694 mmHg 49%
    10:00 +21°C° 0 mm 1 mps 694 mmHg 46%
    11:00 +21°C° 0 mm 2 mps 694 mmHg 43%
    12:00 +24°C° 0 mm 2 mps 694 mmHg 40%
    13:00 +24°C° 0 mm 2 mps 694 mmHg 40%
    14:00 +24°C° 0 mm 2 mps 694 mmHg 41%
    15:00 +24°C° 0 mm 2 mps 693 mmHg 41%
    16:00 +21°C° 0 mm 2 mps 693 mmHg 48%
    17:00 +20°C° 0 mm 1 mps 693 mmHg 54%
    18:00 +19°C° 0 mm 1 mps 693 mmHg 61%
    19:00 +19°C° 0 mm 1 mps 693 mmHg 62%
    20:00 +18°C° 0 mm 1 mps 693 mmHg 63%
    21:00 +18°C° 0 mm 1 mps 694 mmHg 64%
    22:00 +18°C° 0 mm 1 mps 694 mmHg 65%
    23:00 +16°C° 0 mm 1 mps 693 mmHg 66%

    Day after tomorrow, 22 October, Monday

    Time Temperature Precipitation Wind Pressure Humidity
    00:00 +16°C° 0 mm 1 mps 693 mmHg 66%
    01:00 +16°C° 0 mm 1 mps 693 mmHg 67%
    02:00 +15°C° 0 mm 1 mps 693 mmHg 68%
    03:00 +15°C° 0 mm 1 mps 693 mmHg 68%
    04:00 +15°C° 0 mm 1 mps 693 mmHg 68%
    05:00 +15°C° 0 mm 1 mps 693 mmHg 68%
    06:00 +14°C° 0 mm 1 mps 693 mmHg 69%
    07:00 +16°C° 0 mm 1 mps 694 mmHg 64%
    08:00 +19°C° 0 mm 1 mps 694 mmHg 59%
    09:00 +20°C° 0 mm 1 mps 695 mmHg 54%
    10:00 +20°C° 0 mm 2 mps 695 mmHg 51%
    11:00 +21°C° 0 mm 2 mps 695 mmHg 49%
    12:00 +23°C° 0 mm 2 mps 694 mmHg 46%
    13:00 +23°C° 0 mm 2 mps 694 mmHg 46%
    14:00 +23°C° 0 mm 2 mps 694 mmHg 47%
    15:00 +23°C° 0 mm 2 mps 694 mmHg 47%
    16:00 +21°C° 0.2 mm 2 mps 694 mmHg 53%
    17:00 +20°C° 0.2 mm 1 mps 694 mmHg 59%
    18:00 +17°C° 0.2 mm 0 mps 693 mmHg 65%
    19:00 +17°C° 0.1 mm 0 mps 694 mmHg 66%
    20:00 +18°C° 0.1 mm 1 mps 694 mmHg 68%
    21:00 +18°C° 0.1 mm 1 mps 694 mmHg 69%
    22:00 +18°C° 0.1 mm 1 mps 694 mmHg 69%
    23:00 +16°C° 0.1 mm 1 mps 694 mmHg 70%

    23 October, Tuesday

    Time Temperature Precipitation Wind Pressure Humidity
    00:00 +16°C° 0.1 mm 1 mps 694 mmHg 70%
    01:00 +16°C° 0 mm 1 mps 694 mmHg 70%
    02:00 +15°C° 0 mm 1 mps 694 mmHg 70%
    03:00 +15°C° 0 mm 1 mps 694 mmHg 70%
    04:00 +15°C° 0 mm 1 mps 694 mmHg 70%
    05:00 +14°C° 0 mm 1 mps 694 mmHg 70%
    06:00 +14°C° 0 mm 1 mps 694 mmHg 70%
    07:00 +16°C° 0 mm 1 mps 694 mmHg 65%
    08:00 +18°C° 0 mm 1 mps 695 mmHg 59%
    09:00 +20°C° 0 mm 1 mps 695 mmHg 54%
    10:00 +20°C° 0 mm 2 mps 695 mmHg 51%
    11:00 +21°C° 0 mm 2 mps 695 mmHg 48%
    12:00 +23°C° 0 mm 2 mps 695 mmHg 45%
    13:00 +23°C° 0 mm 2 mps 694 mmHg 45%
    14:00 +23°C° 0 mm 2 mps 694 mmHg 46%
    15:00 +23°C° 0 mm 2 mps 693 mmHg 46%
    16:00 +20°C° 0 mm 2 mps 693 mmHg 52%
    17:00 +20°C° 0 mm 1 mps 693 mmHg 58%
    18:00 +18°C° 0 mm 1 mps 693 mmHg 64%
    19:00 +18°C° 0 mm 1 mps 693 mmHg 64%
    20:00 +18°C° 0 mm 1 mps 693 mmHg 64%
    21:00 +16°C° 0 mm 1 mps 693 mmHg 65%
    22:00 +16°C° 0 mm 1 mps 693 mmHg 64%
    23:00 +16°C° 0 mm 1 mps 693 mmHg 63%

    24 October, Wednesday

    Time Temperature Precipitation Wind Pressure Humidity
    00:00 +16°C° 0 mm 2 mps 693 mmHg 62%
    01:00 +15°C° 0 mm 2 mps 693 mmHg 61%
    02:00 +15°C° 0 mm 2 mps 693 mmHg 60%
    03:00 +15°C° 0 mm 2 mps 693 mmHg 59%
    04:00 +15°C° 0 mm 2 mps 693 mmHg 59%
    05:00 +15°C° 0 mm 2 mps 693 mmHg 58%
    06:00 +14°C° 0 mm 2 mps 692 mmHg 58%
    07:00 +16°C° 0 mm 1 mps 693 mmHg 52%
    08:00 +19°C° 0 mm 1 mps 693 mmHg 46%
    09:00 +21°C° 0 mm 1 mps 693 mmHg 40%
    10:00 +21°C° 0 mm 2 mps 693 mmHg 37%
    11:00 +23°C° 0 mm 2 mps 693 mmHg 35%
    12:00 +24°C° 0 mm 3 mps 692 mmHg 32%
    13:00 +24°C° 0 mm 2 mps 692 mmHg 32%
    14:00 +24°C° 0 mm 2 mps 691 mmHg 32%
    15:00 +24°C° 0 mm 2 mps 691 mmHg 32%
    16:00 +21°C° 0 mm 2 mps 691 mmHg 37%
    17:00 +21°C° 0 mm 1 mps 690 mmHg 42%
    18:00 +19°C° 0 mm 1 mps 690 mmHg 47%
    19:00 +19°C° 0 mm 1 mps 690 mmHg 47%
    20:00 +18°C° 0 mm 1 mps 690 mmHg 48%
    21:00 +18°C° 0 mm 1 mps 690 mmHg 49%
    22:00 +18°C° 0 mm 1 mps 689 mmHg 49%
    23:00 +17°C° 0 mm 2 mps 689 mmHg 50%

    25 October, Thursday

    Time Temperature Precipitation Wind Pressure Humidity
    00:00 +16°C° 0 mm 2 mps 689 mmHg 50%
    01:00 +16°C° 0 mm 2 mps 688 mmHg 51%
    02:00 +16°C° 0 mm 2 mps 688 mmHg 51%
    03:00 +16°C° 0 mm 2 mps 688 mmHg 51%
    04:00 +16°C° 0 mm 2 mps 687 mmHg 51%
    05:00 +15°C° 0 mm 2 mps 687 mmHg 51%
    06:00 +15°C° 0 mm 2 mps 687 mmHg 51%
    07:00 +17°C° 0 mm 2 mps 687 mmHg 46%
    08:00 +19°C° 0 mm 2 mps 688 mmHg 41%
    09:00 +21°C° 0 mm 2 mps 688 mmHg 37%
    10:00 +23°C° 0 mm 2 mps 688 mmHg 34%
    11:00 +24°C° 0 mm 3 mps 687 mmHg 32%
    12:00 +25°C° 0 mm 3 mps 687 mmHg 30%
    13:00 +25°C° 0 mm 3 mps 686 mmHg 30%
    14:00 +25°C° 0 mm 3 mps 686 mmHg 30%
    15:00 +25°C° 0 mm 3 mps 686 mmHg 30%
    16:00 +23°C° 0 mm 2 mps 685 mmHg 35%
    17:00 +20°C° 0 mm 2 mps 685 mmHg 40%
    18:00 +19°C° 0 mm 1 mps 685 mmHg 45%
    19:00 +19°C° 0 mm 1 mps 685 mmHg 45%
    20:00 +19°C° 0 mm 1 mps 685 mmHg 45%
    21:00 +18°C° 0 mm 2 mps 685 mmHg 45%
    22:00 +18°C° 0 mm 2 mps 685 mmHg 46%
    23:00 +18°C° 0 mm 2 mps 685 mmHg 47%
    Show more